Home   Weather   Poznan   Past weeks

Flag for Poland Past Weather in Poznan, Poland — Yesterday and Last 2 Weeks

Now
34 °F

Sunny.


Feels Like: 28 °F
Forecast: 28 / 35 °F
Wind: 7 mph from Northwest

Location: Poznan Airport

Current Time: Dec 3, 2016 at 10:54:36 am

Latest Report: Dec 3, 2016 at 10:30 am


Visibility: 10 mi

Pressure: 30.24 "Hg

Humidity: 81%

Dew Point: 28 °F

Location of PoznanLocation

Past Weather in Poznan — Graph

°F

Poznan Temperature Yesterday

Maximum temperature yesterday: 43 °F (at 12:00 am)
Minimum temperature yesterday: 36 °F (at 6:30 am)
Average temperature yesterday: 38 °F

High & Low Weather Summary for the Past Weeks

 TemperatureHumidityPressure
High57 °F (Nov 22, 2:00 pm)100% (Nov 19, 2:30 pm)30.42 "Hg (Nov 19, 2:30 pm)
Low25 °F (Nov 25, 6:30 am)60% (Nov 29, 2:00 pm)29.47 "Hg (Dec 2, 12:00 am)
Average38 °F89%30.01 "Hg
* Reported Nov 18 9:00 am — Dec 3 9:30 am, Poznan, Weather by CustomWeather, © 2016

Note: Actual official high and low records may vary slightly from our data, if they occured in-between our weather recording intervals... More about our weather records

Advertising

Poznan Weather History for the Previous 24 Hours

Scroll right to see more
 ConditionsComfort  
Time TempWeatherWind HumidityBarometerVisibility
9:30 am
Sat, Dec 3
32 °FSunny.5 mph87%30.21 "Hg10 mi
9:00 am30 °FSunny.3 mph86%30.21 "Hg10 mi
8:30 am30 °FSunny.7 mph86%30.18 "Hg10 mi
8:00 am28 °FSunny.6 mph93%30.18 "Hg10 mi
7:30 am28 °FClear.6 mph93%30.18 "Hg10 mi
7:00 am28 °FClear.6 mph100%30.15 "Hg10 mi
6:30 am30 °FClear.7 mph93%30.15 "Hg10 mi
6:00 am30 °FClear.9 mph93%30.15 "Hg10 mi
5:30 am30 °FClear.8 mph93%30.12 "Hg10 mi
5:00 am32 °FPassing clouds.9 mph93%30.12 "HgN/A
4:30 am32 °FPassing clouds.9 mph93%30.12 "HgN/A
4:00 am32 °FPassing clouds.10 mph93%30.12 "HgN/A
3:30 am34 °FPassing clouds.12 mph87%30.09 "HgN/A
3:00 am34 °FPassing clouds.12 mph87%30.09 "HgN/A
2:30 am32 °FPassing clouds.12 mph93%30.09 "HgN/A
2:00 am34 °FPassing clouds.12 mph87%30.09 "HgN/A
1:30 am34 °FClear.12 mph87%30.09 "Hg10 mi
1:00 am34 °FClear.9 mph87%30.07 "Hg10 mi
12:30 am32 °FClear.12 mph93%30.07 "Hg10 mi
12:00 am36 °FPassing clouds.14 mph87%30.07 "HgN/A
11:30 pm
Fri, Dec 2
36 °FPassing clouds.12 mph87%30.07 "HgN/A
11:00 pm36 °FPassing clouds.13 mph87%30.07 "HgN/A
10:30 pm36 °FPassing clouds.13 mph87%30.04 "HgN/A
10:00 pm36 °FPassing clouds.14 mph87%30.04 "HgN/A
9:30 pm36 °FPassing clouds.10 mph87%30.04 "HgN/A
9:00 pm37 °FPassing clouds.12 mph81%30.04 "HgN/A
8:30 pm37 °FPassing clouds.13 mph81%30.04 "HgN/A
8:00 pm37 °FPassing clouds.14 mph81%30.01 "HgN/A
7:30 pm37 °FPassing clouds.14 mph75%30.01 "HgN/A
7:00 pm37 °FPassing clouds.14 mph75%30.01 "HgN/A
6:30 pm36 °FPassing clouds.14 mph81%30.01 "HgN/A
6:00 pm36 °FClear.13 mph81%30.01 "Hg10 mi
5:30 pm36 °FClear.14 mph81%29.98 "Hg10 mi
5:00 pm36 °FClear.14 mph81%29.98 "Hg10 mi
4:30 pm37 °FPassing clouds.14 mph75%29.98 "HgN/A
4:00 pm36 °FPassing clouds.10 mph87%29.98 "HgN/A
3:30 pm37 °FPassing clouds.10 mph81%29.98 "HgN/A
3:00 pm37 °FScattered clouds.12 mph81%29.98 "HgN/A
2:30 pm39 °FPartly sunny.16 mph70%29.95 "HgN/A
2:00 pm39 °FPartly sunny.18 mph70%29.95 "HgN/A
1:30 pm39 °FPartly sunny.15 mph75%29.95 "HgN/A
1:00 pm39 °FPartly sunny.14 mph75%29.92 "HgN/A
12:30 pm39 °FPartly sunny.14 mph75%29.92 "HgN/A
12:00 pm39 °FPartly sunny.16 mph81%29.92 "HgN/A
11:30 am39 °FPartly sunny.15 mph81%29.92 "HgN/A
11:00 am37 °FBroken clouds.15 mph87%29.89 "HgN/A
10:30 am37 °FPartly sunny.14 mph87%29.89 "HgN/A
10:00 am37 °FScattered clouds.14 mph87%29.86 "HgN/A
Weather by CustomWeather, © 2016

See weather overviewHow to use our weather pages